Home > Weather > Midland > Past weeks

Flag for USA Weather for the Past 2 Weeks in Midland, Texas, USA

Now
63 °F

Clear.


Feels Like: 63 °F
Forecast: 61 / 88 °F
Wind: 6 mph from Southeast

Location: Midland - Midland Airpark

Current Time: May 6, 2016 at 6:49:31 AM

Latest Report: May 6, 2016 at 6:15 AM


Visibility: 10 mi

Pressure: 30.04 "Hg (27.19 "Hg at 847m altitude)

Humidity: 42%

Dew Point: 40 °F

Location of MidlandLocation

Historic Weather in Midland — Graph

°F

Midland Temperature Yesterday

Maximum temperature yesterday: 89 °F (at 3:55 PM)
Minimum temperature yesterday: 54 °F (at 6:55 AM)
Average temperature yesterday: 74 °F

High & Low Weather Summary for the Past Weeks

 TemperatureHumidityPressure
High92 °F (Apr 25, 5:15 PM)87% (Apr 25, 5:55 AM)30.28 "Hg (Apr 25, 5:55 AM)
Low47 °F (May 2, 6:35 AM)7% (Apr 27, 6:35 PM)29.60 "Hg (Apr 26, 4:15 PM)
Average71 °F39%29.96 "Hg
* Reported Apr 21 5:15 AM — May 6 5:35 AM, Midland, Weather by CustomWeather, © 2016

Note: Actual official high and low records may vary slightly from our data, if they occured in-between our weather recording intervals... More about our weather records

Advertising

Midland Weather History for the Previous 24 Hours

Scroll right to see more
 ConditionsComfort  
Time TempWeatherWind HumidityBarometerVisibility
5:35 AM
Fri, May 6
64 °FClear.8 mph42%30.04 "Hg10 mi
5:15 AM64 °FClear.9 mph41%30.04 "Hg10 mi
4:55 AM65 °FClear.7 mph40%30.03 "Hg10 mi
4:35 AM63 °FClear.7 mph43%30.03 "Hg10 mi
4:15 AM63 °FClear.7 mph45%30.04 "Hg10 mi
3:55 AM63 °FClear.No wind45%30.04 "Hg10 mi
3:35 AM63 °FClear.No wind45%30.04 "Hg10 mi
3:15 AM64 °FClear.7 mph43%30.04 "Hg10 mi
2:55 AM65 °FClear.7 mph40%30.05 "Hg10 mi
2:35 AM66 °FClear.7 mph39%30.06 "Hg10 mi
2:15 AM67 °FClear.9 mph36%30.07 "Hg10 mi
1:55 AM68 °FClear.10 mph34%30.07 "Hg10 mi
1:15 AM69 °FClear.12 mph32%30.07 "Hg10 mi
12:55 AM70 °FClear.9 mph31%30.07 "Hg10 mi
12:35 AM70 °FClear.10 mph30%30.08 "Hg10 mi
12:15 AM71 °FClear.12 mph28%30.08 "Hg10 mi
11:55 PM
Thu, May 5
71 °FClear.9 mph27%30.08 "Hg10 mi
11:35 PM72 °FClear.10 mph26%30.08 "Hg10 mi
11:15 PM73 °FClear.10 mph25%30.07 "Hg10 mi
10:55 PM74 °FClear.13 mph24%30.07 "Hg10 mi
10:35 PM75 °FClear.12 mph23%30.07 "Hg10 mi
10:15 PM76 °FClear.10 mph22%30.07 "Hg10 mi
9:55 PM76 °FClear.9 mph20%30.07 "Hg10 mi
9:35 PM77 °FClear.10 mph19%30.06 "Hg10 mi
9:15 PM79 °FSunny.12 mph18%30.06 "Hg10 mi
8:55 PM80 °FSunny.8 mph18%30.05 "Hg10 mi
8:35 PM81 °FSunny.13 mph16%30.04 "Hg10 mi
8:15 PM82 °FSunny.12 mph15%30.03 "Hg10 mi
7:55 PM83 °FSunny.13 mph14%30.03 "Hg10 mi
7:15 PM85 °FSunny.13 mph13%30.03 "Hg10 mi
6:55 PM86 °FSunny.14 mph13%30.03 "Hg10 mi
6:35 PM86 °FSunny.13 mph13%30.04 "Hg10 mi
6:15 PM86 °FSunny.13 mph13%30.04 "Hg10 mi
5:55 PM87 °FSunny.10 mph13%30.04 "Hg10 mi
5:35 PM87 °FSunny.10 mph12%30.04 "Hg10 mi
5:15 PM88 °FSunny.14 mph13%30.04 "Hg10 mi
4:55 PM88 °FSunny.12 mph13%30.04 "Hg10 mi
4:35 PM87 °FSunny.10 mph13%30.05 "Hg10 mi
4:15 PM88 °FSunny.13 mph13%30.06 "Hg10 mi
3:55 PM89 °FSunny.14 mph12%30.06 "Hg10 mi
3:35 PM88 °FSunny.8 mph12%30.07 "Hg10 mi
3:15 PM88 °FSunny.15 mph12%30.08 "Hg10 mi
2:30 PM88 °FSunny.15 mph12%30.09 "Hg10 mi
1:55 PM87 °FSunny.9 mph12%30.12 "Hg10 mi
1:35 PM85 °FSunny.10 mph13%30.12 "Hg10 mi
1:15 PM86 °FSunny.7 mph12%30.13 "Hg10 mi
12:55 PM85 °FSunny.8 mph13%30.13 "Hg10 mi
12:35 PM84 °FSunny.9 mph13%30.14 "Hg10 mi
12:15 PM83 °FSunny.9 mph14%30.15 "Hg10 mi
11:55 AM83 °FSunny.10 mph15%30.15 "Hg10 mi
11:35 AM82 °FSunny.12 mph15%30.16 "Hg10 mi
11:15 AM81 °FSunny.8 mph17%30.17 "Hg10 mi
10:55 AM79 °FSunny.7 mph19%30.17 "Hg10 mi
10:35 AM78 °FSunny.6 mph20%30.17 "Hg10 mi
10:15 AM76 °FSunny.8 mph21%30.18 "Hg10 mi
9:55 AM74 °FSunny.7 mph23%30.17 "Hg10 mi
9:35 AM71 °FSunny.No wind29%30.17 "Hg10 mi
9:15 AM68 °FSunny.No wind31%30.17 "Hg10 mi
8:55 AM65 °FSunny.No wind36%30.17 "Hg7 mi
8:15 AM60 °FSunny.No wind44%30.16 "Hg10 mi
7:55 AM58 °FClear.No wind47%30.15 "Hg7 mi
7:35 AM56 °FClear.No wind49%30.14 "Hg10 mi
7:15 AM55 °FClear.No wind51%30.14 "Hg10 mi
6:55 AM54 °FClear.No wind54%30.14 "Hg10 mi
6:35 AM57 °FClear.No wind49%30.13 "Hg10 mi
6:15 AM60 °FClear.No wind39%30.13 "Hg10 mi
Weather by CustomWeather, © 2016

See weather overviewHow to use our weather pages